BEIDOU-3 M5 (C23)

Last updated on Sun Oct 19 2025 00:03:25 GMT+0000 (Coordinated Universal Time)

1 43581U 18062A 25290.40309553 -.00000027 00000+0 00000+0 0 9993 2 43581 54.0908 190.5600 0003142 317.5788 42.4443 1.86228756 49110
UTC large
Height (km)
Speed (km/s)
/
Latitude / Longitude
Inclination (degrees)
Orbital Period (minutes)
Azimuth
Elevation
Range (km)
Doppler Factor

Next 0 passes for location: London (51.5072 / 0.1276)

Sorry there are no passes over London.